#timestamp,LO_Frequency,Hit,StdDev 
1502229615.6,286046998.1,N,1.3
1502229635.4,286047000.8,N,1.2
1502229655.3,286047000.9,N,1.2
1502229675.1,286047000.8,N,1.1
1502229695.8,286682705.9,Y,0.0
1502229715.7,286047001.1,P,0.5
1502229735.5,286047001.1,N,0.5
1502229755.4,286047000.6,N,0.4
1502229775.2,286047000.3,N,0.4
1502229795.0,286046999.8,N,0.5
1502229795.9,286046999.8,N,0.5
1502229815.8,286047011.9,Y,0.0
1502229835.6,286046998.8,P,0.8
1502229855.5,286046998.2,N,0.9
1502229875.3,286046999.1,N,0.8
1502229895.1,286046999.3,N,0.7
1502229915.9,286046998.9,N,0.7
1502229935.7,286046998.6,N,0.6
1502229955.6,286046998.4,N,0.6
1502229975.4,286046998.5,N,0.6
1502229995.2,286046998.6,N,0.6
1502230015.1,286047000.8,N,0.8
1502230016.0,286047000.8,N,0.9
1502230035.8,286047000.5,N,0.9
1502230055.7,286047000.3,N,0.9
1502230075.5,286047002.3,N,1.2
1502230095.3,286047002.2,N,1.3
1502230115.2,286047002.0,N,1.4
1502230135.0,286047001.3,N,1.4
1502230135.9,286047001.3,N,1.4
1502230155.8,286047001.6,N,1.4
1502230175.6,286047001.7,N,1.4
1502230195.4,286047001.5,N,1.4
1502230215.3,286047001.9,N,1.4
1502230235.1,286047002.3,N,1.4
1502230255.8,286047001.6,N,1.4
1502230275.7,286047001.4,N,1.4
1502230295.5,286047003.8,N,1.5
1502230315.4,286047003.9,N,1.6
1502230335.2,286047003.6,N,1.7
1502230355.0,286047003.3,N,1.7
1502230355.9,286047003.3,N,1.7
1502230375.8,286047003.0,N,1.7
1502230395.6,286047003.5,N,1.7
1502230415.5,286047003.5,N,1.7
1502230435.3,286047003.7,N,1.7
1502230455.1,286047003.6,N,1.6
1502230475.9,286047003.1,N,1.5
1502230495.7,286047005.5,Y,0.0
1502230515.6,286047001.9,P,0.0
1502230535.4,286047002.0,P,0.0
1502230555.2,286047004.3,P,1.0
1502230575.1,286047004.0,Y,0.0
1502230576.0,286047004.0,P,0.7
1502230595.8,286047001.1,N,1.2
1502230615.7,286047000.3,N,1.4
1502230635.5,286047000.2,N,1.5
1502230655.3,286047000.5,N,1.4
1502230675.2,286046999.7,N,1.4
1502230695.0,286047002.4,N,1.4
1502230695.9,286047002.4,N,1.4
1502230715.8,286047002.4,N,1.3
1502230735.6,286047002.5,N,1.3
1502230755.4,286047002.2,N,1.2
1502230775.3,286047002.2,N,1.2
1502230795.1,286047001.9,N,1.2
1502230815.9,286047001.7,N,1.1
1502230835.7,286047002.5,N,1.1
1502230855.5,286047001.8,N,1.1
1502230875.4,286047002.9,N,1.1
1502230895.2,286047004.1,Y,0.0
1502230915.1,286046999.9,P,1.0
1502230916.0,286046999.9,N,0.9
1502230935.8,286047000.9,N,0.8
1502230955.7,286047000.0,N,0.8
1502230975.5,286046999.9,N,0.7
1502230995.3,286047001.0,N,0.7
1502231015.2,286047002.7,Y,0.0
1502231035.0,286047000.9,P,0.2
1502231035.9,286047000.9,P,0.2
1502231055.8,286047000.1,N,0.3
1502231075.6,286046999.8,N,0.4
1502231095.4,286047002.8,Y,0.0
1502231115.3,286046999.8,P,0.3
1502231135.1,286047002.3,P,1.1
1502231155.9,286047000.1,N,1.0
1502231175.7,286047001.0,N,0.9
1502231195.5,286046999.7,N,0.9
1502231215.4,286047000.3,N,0.8
1502231235.2,286047002.1,N,0.9
1502231255.0,286047002.7,N,1.1
1502231256.0,286047002.7,N,1.2
1502231275.8,286047002.0,N,1.1
1502231295.6,286047002.3,N,1.1
1502231315.5,286046999.9,N,1.1
1502231335.3,286047002.3,N,1.1
1502231355.1,286047002.3,N,1.1
1502231375.9,286047002.5,N,1.1
1502231395.7,286047002.8,N,1.1
1502231415.6,286047002.4,N,1.1
1502231435.4,286047002.0,N,1.1
1502231455.2,286047002.6,N,1.1
1502231475.1,286047002.1,N,1.1
1502231476.0,286047002.1,N,1.1
1502231495.8,286047002.2,N,1.0
1502231515.7,286047002.7,N,1.0
1502231535.5,286047002.2,N,1.0
1502231555.3,286047002.0,N,1.0
1502231575.2,286047001.6,N,1.0
1502231595.0,286047001.8,N,1.0
1502231595.9,286047001.8,N,1.0
1502231615.8,286047001.7,N,0.9
1502231635.6,286047001.9,N,0.9
1502231655.4,286047002.6,N,0.8
1502231675.3,286047002.0,N,0.8
1502231695.1,286047001.4,N,0.8
1502231715.9,286047003.8,Y,0.0
1502231735.7,286047002.4,P,0.2
1502231755.5,286047002.4,P,0.2
1502231775.4,286047002.3,P,0.2
1502231795.2,286046999.8,N,1.0
1502231815.1,286046999.7,N,1.2
1502231816.0,286046999.7,N,1.3
1502231835.8,286047002.6,N,1.3
1502231855.6,286047002.7,N,1.3
1502231875.5,286047002.3,N,1.2
1502231895.3,286046999.7,N,1.3
1502231915.2,286047000.1,N,1.3
1502231935.9,286047000.2,N,1.3
1502231955.7,286046999.9,N,1.3
1502231975.6,286047001.1,N,1.2
1502231995.4,286047000.3,N,1.2
1502232015.2,286047000.9,N,1.2
1502232035.1,286046999.8,N,1.2
1502232036.0,286046999.8,N,1.2
1502232055.8,286047000.2,N,1.2
1502232075.7,286047002.7,N,1.2
1502232095.5,286047002.1,N,1.2
1502232115.3,286047001.9,N,1.2
1502232135.2,286047001.9,N,1.2
1502232155.0,286047000.3,N,1.1
1502232155.9,286047000.3,N,1.1
1502232175.8,286047002.4,N,1.1
1502232195.6,286047002.4,N,1.1
1502232215.4,286046999.8,N,1.2
1502232235.3,286047002.8,N,1.2
1502232255.1,286046999.8,N,1.2
1502232275.9,286047000.1,N,1.2
1502232295.7,286047002.3,N,1.2
1502232315.5,286047002.5,N,1.2
1502232335.4,286047001.9,N,1.2
1502232355.2,286046999.9,N,1.2
1502232375.1,286046999.7,N,1.2
1502232376.0,286046999.7,N,1.2
1502232395.8,286047002.3,N,1.1
1502232415.6,286047000.0,N,1.1
1502232435.5,286046999.8,N,1.1
1502232455.3,286047002.2,N,1.1
1502232475.2,286047000.5,N,1.1
1502232495.9,286047000.2,N,1.1
1502232515.7,286047002.3,N,1.1
1502232535.6,286047002.3,N,1.2
1502232555.4,286047000.0,N,1.2
1502232575.3,286047002.5,N,1.2
1502232595.1,286047001.5,N,1.1
1502232596.0,286047001.5,N,1.1
1502232615.8,286047002.7,N,1.1
1502232635.7,286046999.7,N,1.2
1502232655.5,286047002.2,N,1.2
1502232675.4,286046999.7,N,1.2
1502232695.2,286047002.3,N,1.2
1502232715.0,286047002.3,N,1.2
1502232715.9,286047002.3,N,1.2
1502232735.8,286047000.3,N,1.2
1502232755.6,286047000.3,N,1.2
1502232775.4,286047002.8,N,1.2
1502232795.3,286047001.6,N,1.1
1502232815.1,286047002.0,N,1.1
1502232835.9,286047002.1,N,1.1
1502232855.7,286047002.5,N,1.1
1502232875.5,286047002.6,N,1.1
1502232895.4,286047000.5,N,1.1
1502232915.2,286047002.7,N,1.1
1502232935.1,286047002.2,N,1.1
1502232936.0,286047002.2,N,1.1
1502232955.8,286047001.4,N,1.0
1502232975.6,286047003.1,N,1.0
1502232995.5,286047003.8,Y,0.0
1502233015.3,286046999.9,P,0.9
1502233035.2,286046999.7,N,0.9
1502233055.9,286047002.5,N,1.2
1502233075.7,286046999.7,N,1.2
1502233095.6,286047002.1,N,1.2
1502233115.4,286047004.0,Y,0.0
1502233135.3,286047001.8,P,0.4
1502233155.1,286047002.7,P,0.7
1502233156.0,286047002.7,P,0.7
1502233175.8,286047001.9,N,0.7
1502233195.7,286047002.5,Y,0.0
